Weather in Sofyino

Russia / Tambov Oblast     53°02′03″N   42°39′22″E
temp.,
°C
wind,
m/s
gust,
m/s
humid.,
%
clouds,
%
prec.,
mm/h
press.,
hPa
HPBL,
m
27 february, sat
sat2700:00+1w6139082 0.1 1004384
03:00+1w7149387 0.1 1004646
06:00+1w71494100 0.0 1002685
09:00+1w71493100 0.1 1001727
12:000w8149990 0.4 1001821
15:00−7nw8128793 1.3 1004789
18:00−8nnw6119296 0.3 1007594
21:00−10nnw5119298 0.3 1011489
28 february, sun
sun2800:00−12nnw499493 0.0 1012267
03:00−13nw379779 0.0 1013148
06:00−14nw369774 0.0 1014124
09:00−13nw379567 0.0 1015247
12:00−10nw359187 0.0 1015423
15:00−8nw359194 0.1 1015522
18:00−9nnw239696 0.2 101645
21:00−11n239698 0.3 101944
1 march, mon
mon100:00−13nne229678 0.0 102020
03:00−15n229660 0.0 102220
06:00−15n22964 0.0 102320
09:00−14nnw22942 0.0 102572
12:00−11nw229024 0.0 1026239
15:00−9wsw249352 0.0 1025223
18:00−10wsw349541 0.0 102450
21:00−10wsw479644 0.0 1023126
2 march, tue
tue200:00−6wsw51195100 0.1 1020337
03:00−4wsw71494100 0.2 1017453
06:00−3wsw71496100 0.8 1012613
09:00−1wsw81497100 2.4 1009769
12:000wnw81398100 1.2 1007789
15:000nw71293100 1.6 1006903
18:00−1nw6149098 0.4 1007633
21:00−2nw6129588 0.5 1009637
3 march, wed
wed300:00−3nw6129498 0.3 1009562
03:00−4wnw6129498 0.4 1009518
06:00−4nw6139492 0.1 1010601
09:00−5nw7129296 0.3 1011897
12:00−4nnw71187100 0.1 10131044
15:00−4nnw71284100 0.3 10141042
18:00−5nnw6148697 0.0 1015538
21:00−7nw5119248 0.0 1018265